AirNav   TITAN Aviation Fuels
 
 1674 users online  

0B1 Bethel Regional Airport
Bethel, Maine, USA

GOING TO BETHEL?


FAA INFORMATION EFFECTIVE 22 APRIL 2021

Location

FAA Identifier: 0B1
Lat/Long: 44-25-30.6000N 070-48-35.7000W
44-25.510000N 070-48.595000W
44.4251667,-70.8099167
(estimated)
Elevation: 674 ft. / 205.4 m (surveyed)
Variation: 17W (1985)
From city: 2 miles NW of BETHEL, ME
Time zone: UTC -4 (UTC -5 during Standard Time)
Zip code: 04217

Airport Operations

Airport use: Open to the public
Activation date: 12/2001
Control tower: no
ARTCC: BOSTON CENTER
FSS: BANGOR FLIGHT SERVICE STATION
NOTAMs facility: BGR (NOTAM-D service available)
Attendance: UNATNDD
Wind indicator: lighted, LGTD WINDSOCK AND APN LGTS ON CONSLY AT NGT.
Segmented circle: yes
Lights: ACTVT REIL RWY 32; MIRL RWY 14/32- CTAF.
Beacon: white-green (lighted land airport)
Operates sunset to sunrise.

Airport Communications

CTAF: 122.9
WX AWOS-AV: 122.9 (207-512-2516)
PORTLAND APPROACH: 125.5
PORTLAND DEPARTURE: 125.5
WX ASOS at BML (18 nm NW): 135.175 (603-449-3328)
  • APCH/DEP SVC PRVDD BY BOSTON ARTCC ON FREQS 128.2/263.05 (WATERBORO RCAG) WHEN PORTLAND APCH CTL CLSD.

Nearby radio navigation aids

NDB name  Hdg/Dist  Freq  Var  ID
RANGELEY203/30.722118WRQM .-. --.- --
MAHN101/37.738617WGMA --. -- .-

Airport Services

Fuel available: 100LL
SELF-SERVE AVBL 24 HRS WITH CREDIT CARD.
Parking: tiedowns
Airframe service: NONE
Powerplant service: NONE
Bottled oxygen: NONE
Bulk oxygen: NONE

Runway Information

Runway 14/32

Dimensions: 3818 x 75 ft. / 1164 x 23 m
Surface: asphalt, in good condition
Runway edge lights: medium intensity
RUNWAY 14  RUNWAY 32
Latitude: 44-25.694830N44-25.323515N
Longitude: 070-48.948492W070-48.241258W
Elevation: 674.0 ft.656.2 ft.
Traffic pattern: leftleft
Markings: basic, in good conditionnonprecision, in good condition
Runway end identifier lights: yes
Touchdown point: yes, no lightsyes, no lights

Airport Ownership and Management from official FAA records

Ownership: Publicly-owned
Owner: TOWN OF BETHEL
PO BOX 1660
BETHEL, ME 04217
Phone 207-824-2669
Manager: LORETTA POWERS
TOWN OF BETHEL, PO BOX 1660
BETHEL, ME 04217
Phone 207-824-2669
EMERG (POLICE FONE) 1-800-733-1421 OR AMGR 207-739-9619.

Airport Operational Statistics

Aircraft based on the field: 17
Single engine airplanes: 16
Multi engine airplanes: 1
    
Aircraft operations: avg 91/week *
53% local general aviation
42% transient general aviation
5% military
* for 12-month period ending 05 August 2019

Additional Remarks

A58-14 30-60 FT TREES 40-185 FT FM END OF RWY 212 FT RT.
TURKEYS & GEESE ON OR INVOF ARPT.
FOR CD CTC PORTLAND APCH AT 207-874-7320, WHEN APCH CLSD CTC BOSTON ARTCC AT 603-879-6859.
COLD TEMPERATURE AIRPORT. ALTITUDE CORRECTION REQUIRED AT OR BELOW -23C.
UNLGTD MTUS TRRN.
FOR RWY CONDS OR OTHER INFO, CTC ARPT INFO LINE 207-512-5552.
PWRD PRCHT ACTVTY OCNLY IN TRML AREA.
NO FEES FOR PRKG, TIE-DOWN, OVNGT ELECL A/C HOOK-UP.
ARPT SFC CONDS UNMON BTN 0200-1300Z DLY.
ACTVT AWOS-AV VIA PHONE (207-512-2516) OR KEY CTAF 3 TIMES.
UAS WI 3 NM RDS OF ARPT SFC-400 FT AGL DLY, SR-SS.

Instrument Procedures

NOTE: All procedures below are presented as PDF files. If you need a reader for these files, you should download the free Adobe Reader.

NOT FOR NAVIGATION. Please procure official charts for flight.
FAA instrument procedures published for use from 22 April 2021 at 0901Z to 20 May 2021 at 0900z.

 
IAPs - Instrument Approach Procedures
RNAV (GPS) Y RWY 32 **CHANGED**   download (228KB)
NOTE: Special Take-Off Minimums/Departure Procedures apply   download (388KB)

Other nearby airports with instrument procedures:

KBML - Berlin Regional Airport (18 nm NW)
81B - Oxford County Regional Airport (21 nm SE)
KIZG - Eastern Slopes Regional Airport (27 nm S)
KHIE - Mount Washington Regional Airport (32 nm W)
KLEW - Auburn/Lewiston Municipal Airport (32 nm SE)
 
Loc | Ops | Rwys | IFR | FBO | Links
Com | Nav | Svcs | Stats | Notes

Auburn-Lewiston Municipal Airport
 
Area around 0B1 (Bethel Regional Airport)
 
Road maps at: MapQuest Bing Google
 
Aerial photo
WARNING: Photo may not be current or correct
Aerial photo of 0B1 (Bethel Regional Airport)
Photo by Pete Chaisson Portland Flight Services
Photo taken 15-Aug-2014
looking southeast.

Do you have a better or more recent aerial photo of Bethel Regional Airport that you would like to share? If so, please send us your photo.

 
Sectional chart

 
Airport distance calculator
Flying to Bethel Regional Airport? Find the distance to fly.

From to 0B1

Sunrise and sunset
Times for 18-May-2021
 Local
(UTC-4)
 Zulu
(UTC)
Morning civil twilight04:4008:40
Sunrise05:1409:14
Sunset20:0600:06
Evening civil twilight20:4000:40

Current date and time
Zulu (UTC)  18-May-2021 18:25:01
Local (UTC-4)  18-May-2021 14:25:01
 
METAR
KBML 
19nm NW 
181752Z AUTO 33011G17KT 10SM BKN070 22/04 A3016 RMK AO2 SLP213 T02220044 10233 20122 58016
KMWN 
22nm SW 
181753Z 30038G47KT 60SM BKN002 OVC150 06/03 RMK 10067 20028
KIZG 
27nm S 
181754Z AUTO 30011G18KT 270V340 10SM FEW095 26/04 A3014 RMK AO2 SLP209 T02560044 10261 20117 58016
KCWN 
29nm SW 
181608Z AUTO 31015G24KT 10SM -RA OVC030 08/05 A2994 RMK AO2 SLP017 $
KHIE 
32nm W 
181752Z AUTO 29014G21KT 10SM FEW070 SCT085 22/07 A3018 RMK AO2 SLP222 T02220072 10228 20117 58015
K8B0 
33nm N 
181755Z AUTO 30013G19KT 9SM CLR 20/02 A3017 RMK AO2
KLEW 
33nm SE 
181756Z AUTO 30014KT 270V330 10SM FEW080 SCT100 25/06 A3012 RMK AO2 SLP206 T02500056 10250 20111 58020
TAF
KHIE 
32nm W 
181720Z 1818/1918 29008G15KT P6SM BKN060 FM190000 VRB03KT P6SM BKN250
NOTAMs
Click for the latest NOTAMs
NOTAMs are issued by the DoD/FAA and will open in a separate window not controlled by AirNav.

 

 
 

FBO, Fuel Providers, and Aircraft Ground Support

  
 Business Name 
 
 Contact 
 
 Services / Description 
 
Fuel Prices
 
Comments
  
Town of Bethel (self-serve fuel) 207-512-5552
[web site]
[email]
Aviation fuel, Aircraft parking (ramp or tiedown), Passenger terminal and lounge, Courtesy transportation, Pilots lounge / snooze room, Public telephone, ...

More info about Town of Bethel (self-serve fuel)
independent
100LL
SS $4.20 
GUARANTEED
 
   2 read write
SS=Self service
Update Fuel Prices
 

Would you like to see your business listed on this page?

 If your business provides an interesting product or service to pilots, flight crews, aircraft, or users of the Bethel Regional Airport, you should consider listing it here.  To start the listing process, click on the button below
 
Add a business
 

Other Pages about Bethel Regional Airport

www.bethelregionalairport.com
www.bethelmaine.org/...
www.exploremaine.org/...
 
Update a link
 
Copyright © AirNav, LLC. All rights reserved. Privacy Policy  Contact